User: anonymous   Login
Location: Fort Wayne
(41.1310°N, 85.1290°W)
Time: 15:19:41
(UTC-05:00)
Language:

Helios 1B - Orbit

View from above orbital plane
View from above orbital plane
View from above satellite
View from above satellite

Ground track
Ground track

The orbit data is extracted from the following two-line orbital elements,

1 25977U 99064A   17328.41591037  .00000104  00000-0  20013-4 0  9994
2 25977  98.1647  83.0064 0002474 109.2650 250.8830 14.82315202967745
Epoch (UTC): 24 November 2017 09:58:54
Eccentricity: 0.0002474
inclination: 98.1647°
perigee height: 620 km
apogee height: 624 km
right ascension of ascending node: 83.0064°
argument of perigee: 109.2650°
revolutions per day: 14.82315202
mean anomaly at epoch: 250.8830°
orbit number at epoch: 96774

The dashed part of the orbit path shows where the satellite is in the earth's shadow,  

DLR